Weather in Buret

Russia / Irkutsk Oblast     52°59′32″N   103°30′40″E
temp.,
°C
wind,
m/s
gust,
m/s
humid.,
%
clouds,
%
prec.,
mm/h
press.,
hPa
HPBL,
m
27 february, sat
sat2723:00−19nw4993100 0.0 1030169
02:00−21nw239691 0.0 103121
05:00−22wnw369821 0.0 1034102
08:00−21nw4108360 0.1 1037375
11:00−18nnw3584100 0.0 1037613
14:00−17nne2271100 0.0 1036773
17:00−18nne228373 0.0 1036133
20:00−23ne238637 0.0 103920
28 february, sun
sun2823:00−23ene128572 0.0 104120
02:00−26e118772 0.0 104120
05:00−27sse129657 0.0 104119
08:00−27sse229375 0.0 104219
11:00−23n119194 0.0 1040172
14:00−18n238197 0.0 1038301
17:00−17n228669 0.0 103889
20:00−23nnw128946 0.0 104020
1 march, mon
mon123:00−23se128726 0.0 104020
02:00−24ese229536 0.0 103820
05:00−26se129557 0.0 103620
08:00−26se2210047 0.0 103519
11:00−19se24907 0.0 1030238
14:00−13sse358214 0.0 1025332
17:00−10ese238860 0.0 102289
20:00−12e349080 0.0 102157
2 march, tue
tue223:00−15ese2388100 0.0 101932
02:00−18se229185 0.0 101626
05:00−19se229296 0.0 101420
08:00−18ese118996 0.0 101320
11:00−13nne0083100 0.0 1011137
14:00−9nnw1292100 0.4 1011238
17:00−8n239399 0.3 1012298
20:00−13n229396 0.4 101621
3 march, wed
wed323:00−12nnw2496100 0.5 1017133
02:00−13nnw3696100 1.1 1017263
05:00−16nnw3696100 0.3 1018251
08:00−18nnw3495100 0.5 1020122
11:00−17nnw349199 0.1 1019263
14:00−16nnw4589100 0.1 1018347
17:00−17nnw4683100 0.0 1018325
20:00−19nnw3586100 0.0 1021173